Date String (YYYY-MM-DD hh:mm:ss) UTC,Instrument flags,Ambient pressure (hPa),Sample flow (lpm),Bypass flow (lpm),Sample temperature (°C),Ambient temperature (°C),ASC tube jacket temperature (°C),LED temperature (°C),Box temperature (°C),Sample RH (%),Span deviation,Mass concentration (μg/m³),Mass concentration (μg/m³),Mass concentration (μg/m³)
DateTimeUTC,F1_M11,P_M11,Q1_M11,Q2_M11,T1_M11,T2_M11,T3_M11,T4_M11,T5_M11,U1_M11,ZSPAN_M11,X0_M11,X2_M11,X1_M11
2023-02-05 23:00:00,,0818.3,5.03,0.00,26.1,24.8,00.0,34.9,27.9,13.4,0000.0,0014.72,0007.97,0007.26
2023-02-05 23:01:00,,0818.4,5.01,0.00,26.1,24.8,00.0,34.9,27.9,13.4,0000.0,0014.56,0007.97,0007.27
2023-02-05 23:02:00,,0818.4,4.96,0.00,26.1,24.8,00.0,34.9,27.9,13.5,0000.0,0014.64,0008.01,0007.27
2023-02-05 23:03:00,,0818.3,5.04,0.00,26.1,24.8,00.0,34.9,27.9,13.4,0000.0,0014.84,0008.03,0007.28
2023-02-05 23:04:00,,0818.2,4.97,0.00,26.1,24.8,00.0,34.9,27.9,13.4,0000.0,0014.63,0008.06,0007.27
2023-02-05 23:05:00,,0818.2,5.02,0.00,26.1,24.8,00.0,34.9,27.9,13.2,0000.0,0014.64,0008.07,0007.27
2023-02-05 23:06:00,,0818.1,5.01,0.00,26.1,24.8,00.0,34.9,27.9,13.3,0000.0,0014.50,0008.07,0007.27
2023-02-05 23:07:00,,0818.2,4.96,0.00,26.1,24.8,00.0,34.9,27.9,13.2,0000.0,0014.35,0008.10,0007.28
2023-02-05 23:08:00,,0818.2,5.04,0.00,26.1,24.8,00.0,34.9,27.9,13.2,0000.0,0014.17,0008.12,0007.29
2023-02-05 23:09:00,,0818.2,4.95,0.00,26.1,24.8,00.0,34.9,27.9,13.2,0000.0,0013.90,0008.14,0007.30
2023-02-05 23:10:00,,0818.2,5.02,0.00,26.1,24.8,00.0,34.9,27.9,13.2,0000.0,0014.45,0008.18,0007.32
2023-02-05 23:11:00,,0818.0,5.04,0.00,26.1,24.9,00.0,34.9,28.0,13.2,0000.0,0014.41,0008.18,0007.32
2023-02-05 23:12:00,,0818.1,4.95,0.00,26.2,24.9,00.0,35.0,28.0,13.1,0000.0,0014.56,0008.20,0007.33
2023-02-05 23:13:00,,0818.1,5.03,0.00,26.1,24.9,00.0,35.0,28.0,13.1,0000.0,0014.51,0008.21,0007.34
2023-02-05 23:14:00,,0818.0,5.00,0.00,26.2,24.9,00.0,35.0,28.0,13.2,0000.0,0014.28,0008.20,0007.36
2023-02-05 23:15:00,,0818.0,4.98,0.00,26.2,24.9,00.0,35.0,28.0,13.1,0000.0,0013.39,0008.19,0007.38
2023-02-05 23:16:00,,0818.0,5.03,0.00,26.2,24.9,00.0,35.0,28.0,12.9,0000.0,0013.14,0008.21,0007.41
2023-02-05 23:17:00,,0818.0,4.98,0.00,26.2,24.9,00.0,35.0,28.0,12.9,0000.0,0013.18,0008.24,0007.45
2023-02-05 23:18:00,,0818.0,4.98,0.00,26.2,24.9,00.0,35.0,28.0,12.8,0000.0,0013.13,0008.24,0007.48
2023-02-05 23:19:00,,0818.0,5.04,0.00,26.2,25.0,00.0,35.0,28.0,12.8,0000.0,0013.41,0008.25,0007.51
2023-02-05 23:20:00,,0818.0,4.96,0.00,26.2,25.0,00.0,35.0,28.0,12.8,0000.0,0013.50,0008.27,0007.54
2023-02-05 23:21:00,,0818.0,5.02,0.00,26.2,25.0,00.0,35.0,28.0,12.7,0000.0,0012.82,0008.27,0007.57
2023-02-05 23:22:00,,0818.0,5.03,0.00,26.2,25.0,00.0,35.0,28.1,12.7,0000.0,0012.94,0008.33,0007.61
2023-02-05 23:23:00,,0818.0,4.95,0.00,26.2,25.1,00.0,35.0,28.1,12.8,0000.0,0012.73,0008.38,0007.65
2023-02-05 23:24:00,,0818.0,5.04,0.00,26.3,25.1,00.0,35.0,28.1,12.6,0000.0,0012.76,0008.44,0007.70
2023-02-05 23:25:00,,0818.0,5.01,0.00,26.3,25.1,00.0,35.0,28.1,12.6,0000.0,0012.69,0008.43,0007.72
2023-02-05 23:26:00,,0818.0,4.98,0.00,26.3,25.1,00.0,35.1,28.1,12.7,0000.0,0012.79,0008.48,0007.74
2023-02-05 23:27:00,,0818.0,5.03,0.00,26.3,25.2,00.0,35.1,28.2,12.6,0000.0,0013.45,0008.52,0007.76
2023-02-05 23:28:00,,0818.0,5.00,0.00,26.3,25.2,00.0,35.1,28.2,12.6,0000.0,0013.36,0008.52,0007.77
2023-02-05 23:29:00,,0818.0,4.97,0.00,26.3,25.2,00.0,35.1,28.2,12.6,0000.0,0013.25,0008.53,0007.77
2023-02-05 23:30:00,,0817.9,5.02,0.00,26.3,25.2,00.0,35.1,28.2,12.5,0000.0,0013.23,0008.54,0007.77
2023-02-05 23:31:00,,0818.0,5.01,0.00,26.3,25.2,00.0,35.1,28.2,12.5,0000.0,0013.37,0008.54,0007.78
2023-02-05 23:32:00,,0817.9,4.98,0.00,26.4,25.2,00.0,35.1,28.2,12.5,0000.0,0013.37,0008.57,0007.79
2023-02-05 23:33:00,,0817.9,5.03,0.00,26.4,25.2,00.0,35.1,28.2,12.4,0000.0,0013.27,0008.54,0007.80
2023-02-05 23:34:00,,0817.8,5.00,0.00,26.4,25.2,00.0,35.1,28.2,12.4,0000.0,0013.32,0008.55,0007.83
2023-02-05 23:35:00,,0817.8,4.96,0.00,26.4,25.3,00.0,35.1,28.3,12.4,0000.0,0013.55,0008.58,0007.84
2023-02-05 23:36:00,,0817.7,5.04,0.00,26.4,25.3,00.0,35.2,28.3,12.4,0000.0,0013.65,0008.64,0007.86
2023-02-05 23:37:00,,0817.8,4.99,0.00,26.4,25.3,00.0,35.2,28.3,12.4,0000.0,0013.54,0008.63,0007.89
2023-02-05 23:38:00,,0817.8,5.00,0.00,26.4,25.3,00.0,35.2,28.3,12.4,0000.0,0013.12,0008.62,0007.90
2023-02-05 23:39:00,,0817.8,5.03,0.00,26.4,25.3,00.0,35.2,28.3,12.4,0000.0,0013.16,0008.62,0007.90
2023-02-05 23:40:00,,0817.8,4.97,0.00,26.5,25.4,00.0,35.2,28.3,12.3,0000.0,0013.23,0008.67,0007.93
2023-02-05 23:41:00,,0817.8,5.00,0.00,26.5,25.4,00.0,35.2,28.3,12.3,0000.0,0013.08,0008.75,0008.01
2023-02-05 23:42:00,,0817.8,5.03,0.00,26.5,25.3,00.0,35.2,28.3,12.3,0000.0,0012.96,0008.84,0008.09
2023-02-05 23:43:00,,0817.8,4.97,0.00,26.5,25.4,00.0,35.2,28.4,12.3,0000.0,0012.92,0008.89,0008.17
2023-02-05 23:44:00,,0817.8,5.01,0.00,26.5,25.4,00.0,35.3,28.4,12.3,0000.0,0012.91,0008.93,0008.23
2023-02-05 23:45:00,,0817.8,5.03,0.00,26.5,25.4,00.0,35.3,28.4,12.3,0000.0,0012.89,0008.98,0008.28
2023-02-05 23:46:00,,0817.8,4.96,0.00,26.5,25.4,00.0,35.3,28.4,12.3,0000.0,0012.70,0009.01,0008.34
2023-02-05 23:47:00,,0817.8,5.02,0.00,26.5,25.4,00.0,35.3,28.4,12.2,0000.0,0012.76,0009.04,0008.40
2023-02-05 23:48:00,,0817.8,5.02,0.00,26.6,25.4,00.0,35.3,28.4,12.2,0000.2,0012.94,0009.11,0008.45
2023-02-05 23:49:00,,0817.8,4.97,0.00,26.6,25.4,00.0,35.3,28.4,12.2,0000.1,0013.07,0009.21,0008.52
2023-02-05 23:50:00,,0817.8,5.00,0.00,26.6,25.4,00.0,35.3,28.4,12.2,0000.1,0013.14,0009.30,0008.61
2023-02-05 23:51:00,,0817.8,5.03,0.00,26.6,25.4,00.0,35.3,28.4,12.3,0000.3,0013.64,0009.33,0008.66
2023-02-05 23:52:00,,0817.8,5.00,0.00,26.6,25.4,00.0,35.3,28.4,12.3,0000.2,0014.15,0009.32,0008.65
2023-02-05 23:53:00,,0817.7,4.97,0.00,26.6,25.4,00.0,35.3,28.4,12.1,0000.0,0014.07,0009.31,0008.64
2023-02-05 23:54:00,,0817.6,5.03,0.00,26.6,25.3,00.0,35.3,28.4,12.0,0000.0,0014.29,0009.35,0008.65
2023-02-05 23:55:00,,0817.6,5.02,0.00,26.6,25.3,00.0,35.4,28.4,12.0,0000.0,0014.37,0009.38,0008.66
2023-02-05 23:56:00,,0817.6,4.96,0.00,26.6,25.3,00.0,35.4,28.4,11.9,0000.0,0014.37,0009.37,0008.65
2023-02-05 23:57:00,,0817.7,5.03,0.00,26.6,25.3,00.0,35.4,28.4,11.9,0000.0,0014.56,0009.41,0008.64
2023-02-05 23:58:00,,0817.7,5.00,0.00,26.6,25.3,00.0,35.4,28.4,11.8,0000.0,0014.73,0009.42,0008.63
2023-02-05 23:59:00,,0817.7,4.98,0.00,26.6,25.2,00.0,35.4,28.3,11.5,0000.0,0015.09,0009.40,0008.63
